User: anonymous   Login
Location: Newark
(42.8481°N, 0.4872°E)
Time: 00:51:51
(UTC+00:00)
Language:

A-11 Canister half - Orbit

View from above orbital plane
View from above orbital plane
View from above satellite
View from above satellite

Ground track
Ground track

The orbit data is extracted from the following two-line orbital elements,

1 00051U 60009C   21337.47365202 -.00000077  00000-0  66678-4 0  9998
2 00051  47.2107 135.2955 0104928 310.9718  48.2029 12.18273009729198
Epoch (UTC): 03 December 2021 11:22:03
Eccentricity: 0.0104928
inclination: 47.2107°
perigee height: 1516 km
apogee height: 1684 km
right ascension of ascending node: 135.2955°
argument of perigee: 310.9718°
revolutions per day: 12.18273009
mean anomaly at epoch: 48.2029°
orbit number at epoch: 72919

The dashed part of the orbit path shows where the satellite is in the earth's shadow,  

DLR